Flag for Poland Weather past 2 weeks in Poznan, Poland

Now
84 °F

Sunny.


Feels Like: 82 °F
Forecast: 63 / 93 °F
Wind: 10 mph from Southeast

Location: Poznan Airport

Current Time: Jul 3, 2015 at 7:21:10 PM

Latest Report: Jul 3, 2015 at 7:00 PM


Visibility: 10 mi

Pressure: 30.27 "Hg

Humidity: 27%

Dew point: 46 °F

Location of PoznanLocation

Historic Weather in Poznan — Graph

°F

Poznan temperature yesterday

Maximum temperature yesterday: 79 °F (at 3:00 PM)
Minimum temperature yesterday: 57 °F (at 5:00 AM)
Average temperature yesterday: 70 °F

Past Weeks' High & Low Weather Summary

 TemperatureHumidityPressure
High86 °F (Jul 3, 3:30 PM)100% (Jun 18, 10:00 PM)30.36 "Hg (Jun 18, 10:00 PM)
Low46 °F (Jun 22, 4:00 AM)20% (Jul 3, 4:30 PM)29.62 "Hg (Jun 23, 2:30 AM)
Average61 °F72%30.04 "Hg
* Reported Jun 18 6:00 PM — Jul 3 6:00 PM, Poznan, Weather by CustomWeather, © 2015

Note: Actual official high and low records may vary slightly from our data, if they occured in-between our weather recording intervals... More about our weather records

Advertising

Poznan weather history for previous 24 hours

 ConditionsComfort  
Time TempWeatherWind HumidityBarometerVisibility
6:00 PM
Fri, Jul 3
86 °FPassing clouds.12 mph25%30.27 "HgN/A
5:30 PM86 °FSunny.10 mph24%30.27 "Hg10 mi
5:00 PM86 °FSunny.12 mph24%30.30 "Hg10 mi
4:30 PM86 °FPassing clouds.14 mph20%30.30 "HgN/A
4:00 PM86 °FPassing clouds.12 mph25%30.30 "HgN/A
3:30 PM86 °FPassing clouds.12 mph24%30.30 "HgN/A
3:00 PM84 °FPassing clouds.7 mph27%30.33 "HgN/A
2:30 PM84 °FPassing clouds.8 mph29%30.33 "HgN/A
2:00 PM84 °FSunny.12 mph29%30.33 "Hg10 mi
1:30 PM82 °FPassing clouds.10 mph30%30.33 "HgN/A
1:00 PM82 °FSunny.12 mph32%30.33 "Hg10 mi
12:30 PM81 °FSunny.14 mph34%30.36 "Hg10 mi
12:00 PM81 °FPassing clouds.14 mph32%30.36 "HgN/A
11:30 AM79 °FPassing clouds.12 mph37%30.36 "HgN/A
11:00 AM79 °FPassing clouds.9 mph42%30.36 "HgN/A
10:30 AM79 °FPassing clouds.7 mph39%30.36 "HgN/A
10:00 AM77 °FPassing clouds.7 mph42%30.36 "HgN/A
9:30 AM75 °FPassing clouds.7 mph47%30.36 "HgN/A
9:00 AM73 °FPassing clouds.7 mph50%30.36 "HgN/A
8:30 AM72 °FSunny.6 mph50%30.36 "Hg10 mi
8:00 AM70 °FSunny.8 mph53%30.36 "Hg10 mi
7:30 AM68 °FSunny.6 mph53%30.36 "Hg10 mi
7:00 AM68 °FSunny.6 mph53%30.36 "Hg10 mi
6:30 AM66 °FSunny.5 mph56%30.36 "Hg10 mi
6:00 AM63 °FSunny.7 mph68%30.36 "Hg10 mi
5:30 AM59 °FClear.7 mph72%30.36 "Hg10 mi
5:00 AM61 °FClear.7 mph68%30.36 "Hg10 mi
4:30 AM61 °FClear.7 mph68%30.33 "Hg10 mi
4:00 AM59 °FClear.8 mph72%30.33 "Hg10 mi
3:30 AM61 °FClear.8 mph68%30.33 "Hg10 mi
3:00 AM61 °FClear.8 mph68%30.33 "Hg10 mi
2:30 AM63 °FClear.10 mph64%30.33 "Hg10 mi
2:00 AM64 °FClear.9 mph60%30.33 "Hg10 mi
1:30 AM64 °FClear.8 mph60%30.33 "Hg10 mi
1:00 AM66 °FClear.9 mph56%30.33 "Hg10 mi
12:30 AM64 °FClear.8 mph60%30.33 "Hg10 mi
12:00 AM66 °FClear.8 mph56%30.33 "Hg10 mi
11:30 PM
Thu, Jul 2
68 °FClear.9 mph53%30.33 "Hg10 mi
11:00 PM70 °FClear.9 mph53%30.33 "Hg10 mi
10:30 PM68 °FClear.6 mph56%30.33 "Hg10 mi
10:00 PM72 °FSunny.7 mph50%30.33 "Hg10 mi
9:30 PM73 °FSunny.7 mph47%30.30 "Hg10 mi
9:00 PM75 °FSunny.6 mph44%30.30 "Hg10 mi
8:30 PM77 °FPassing clouds.6 mph39%30.30 "HgN/A
8:00 PM77 °FSunny.8 mph36%30.30 "Hg10 mi
7:30 PM79 °FSunny.7 mph34%30.30 "Hg10 mi
7:00 PM79 °FSunny.9 mph34%30.30 "Hg10 mi
Weather by CustomWeather, © 2015

See weather overviewHow to use our weather pages